Weather History for Salalah, Oman

Change the Weather History Date:

Tuesday, February 5, 2013

  Actual Average Record
Temperature  
Mean Temperature 72 °F -  
Max Temperature 79 °F 80 °F 91 °F (2011)
Min Temperature 66 °F 67 °F 57 °F (2008)
Cooling Degree Days 8    
Growing Degree Days 22 (Base 50)    
Moisture  
Dew Point 34 °F    
Average Humidity 22    
Maximum Humidity 33    
Minimum Humidity 7    
Precipitation  
Precipitation 0.00 in 0.01 in - ()
Sea Level Pressure  
Sea Level Pressure 30.12 in    
Wind  
Wind Speed 12 mph ()    
Max Wind Speed 18 mph    
Max Gust Speed 31 mph    
Visibility 5.8 miles    
Events      
Averages and records for this station are not official NWS values.
T = Trace of Precipitation, MM = Missing Value Source: Averaged Metar Reports

Daily Weather History Graph

Daily Weather History Graph

Search for Another Location

Airport:

Trip Planner

Search our weather history database for the weather conditions in past years. The results will help you decide how hot, cold, wet, or windy it might be!

Date:

Astronomy

Feb. 05, 2013 Rise Set
Actual Time 6:54 AM GST 6:21 PM GST
Civil Twilight 6:31 AM GST 6:43 PM GST
Nautical Twilight 6:05 AM GST 7:09 PM GST
Astronomical Twilight 5:40 AM GST 7:35 PM GST
Moon 1:56 AM GST (2/5) 1:31 PM GST (2/5)
Length of Visible Light 12h 12m
Length of Day
11h 27m
Waning Crescent, 30% of the Moon is Illuminated
Feb 5
Waning Crescent
Feb 10
New
Feb 18
First Quarter
Feb 26
Full
Mar 5
Last Quarter

Hourly Weather History & Observations

Time (GST) Temp. Dew Point Humidity Pressure Visibility Wind Dir Wind Speed Gust Speed Precip Events Conditions
12:50 AM 69.8 °F 17.6 °F 14% 30.12 in 6.2 mi North 16.1 mph - N/A   Unknown
1:00 AM 69 °F 18 °F 7% 30.12 in 6 mi North 16.1 mph - -  
1:50 AM 68.0 °F 23.0 °F 18% 30.09 in - North 12.7 mph - N/A   Clear
2:50 AM 68.0 °F 28.4 °F 23% 30.09 in - North 13.8 mph - N/A   Clear
4:00 AM 68 °F 33 °F 17% 30.10 in 6 mi NNW 11.5 mph - -  
4:50 AM 68.0 °F 35.6 °F 30% 30.09 in - North 11.5 mph - N/A   Clear
5:50 AM 68.0 °F 35.6 °F 30% 30.12 in - North 9.2 mph 20.7 mph N/A   Clear
6:50 AM 68.0 °F 35.6 °F 30% 30.15 in 5.6 mi North 10.4 mph - N/A   Unknown
7:00 AM 67 °F 36 °F 20% 30.16 in 6 mi North 10.4 mph - -  
7:50 AM 68.0 °F 35.6 °F 30% 30.15 in 5.6 mi North 10.4 mph - N/A   Unknown
8:50 AM 69.8 °F 39.2 °F 33% 30.18 in 5.6 mi North 15.0 mph - N/A   Unknown
9:50 AM 71.6 °F 37.4 °F 29% 30.18 in 5.6 mi NNW 17.3 mph - N/A   Unknown
10:00 AM 72 °F 38 °F 19% 30.20 in 6 mi NNW 17.3 mph - -   Widespread Dust
10:50 AM 73.4 °F 37.4 °F 27% 30.18 in 5.0 mi NNW 15.0 mph - N/A   Unknown
11:50 AM 75.2 °F 37.4 °F 25% 30.15 in 5.6 mi North 16.1 mph - N/A   Unknown
12:50 PM 77.0 °F 37.4 °F 24% 30.12 in - North 15.0 mph - N/A   Clear
1:00 PM 77 °F 37 °F 14% 30.13 in 7 mi North 15.0 mph - -  
1:50 PM 78.8 °F 37.4 °F 23% 30.09 in - North 16.1 mph - N/A   Clear
2:50 PM 78.8 °F 35.6 °F 21% 30.06 in 5.6 mi NNE 18.4 mph - N/A   Unknown
3:50 PM 78.8 °F 35.6 °F 21% 30.06 in 4.3 mi North 16.1 mph - N/A   Unknown
4:00 PM 79 °F 36 °F 12% 30.07 in 6 mi North 16.1 mph - -  
4:50 PM 78.8 °F 35.6 °F 21% 30.06 in 4.3 mi North 16.1 mph 31.1 mph N/A   Unknown
5:50 PM 77.0 °F 33.8 °F 21% 30.09 in 5.0 mi North 15.0 mph 28.8 mph N/A   Unknown
6:50 PM 75.2 °F 33.8 °F 22% 30.09 in - North 12.7 mph - N/A   Clear
7:00 PM 76 °F 35 °F 13% 30.12 in 9 mi North 12.7 mph - -  
7:50 PM 73.4 °F 35.6 °F 25% 30.12 in - North 8.1 mph - N/A   Clear
8:50 PM 73.4 °F 35.6 °F 25% 30.15 in 6.2 mi NE 6.9 mph - N/A   Unknown
9:50 PM 71.6 °F 35.6 °F 27% 30.15 in - NNW 9.2 mph - N/A   Clear
10:00 PM 72 °F 35 °F 16% 30.17 in 6 mi NNW 9.2 mph - -  
10:50 PM 71.6 °F 35.6 °F 27% 30.15 in - NNW 10.4 mph - N/A   Clear
11:50 PM 69.8 °F 35.6 °F 28% 30.15 in - NNW 8.1 mph - N/A   Clear